�������l�o���
Date,Time,MP-1(��Sv/h),MP-2(��Sv/h),MP-3(��Sv/h),MP-4(��Sv/h),MP-5(��Sv/h),MP-6(��Sv/h),MP-7(��Sv/h),MP-8(��Sv/h),����,����(m/s),���J
2019/12/19,00:00,0.722,1.041,0.700,1.317,0.910,0.412,0.722,0.684,�k��,6.3,��
2019/12/19,00:10,0.722,1.041,0.701,1.316,0.912,0.412,0.722,0.684,�k��,6.6,��
2019/12/19,00:20,0.722,1.043,0.700,1.315,0.914,0.412,0.723,0.685,�k��,4.9,��
2019/12/19,00:30,0.723,1.043,0.699,1.314,0.914,0.413,0.723,0.683,�k��,6.0,��
2019/12/19,00:40,0.721,1.041,0.699,1.318,0.913,0.412,0.722,0.683,���k��,4.5,��
2019/12/19,00:50,0.723,1.042,0.699,1.316,0.912,0.412,0.723,0.684,���k��,4.2,��
2019/12/19,01:00,0.723,1.040,0.698,1.315,0.913,0.413,0.722,0.684,���k��,4.9,��
2019/12/19,01:10,0.724,1.043,0.701,1.317,0.914,0.412,0.723,0.683,���k��,4.1,��
2019/12/19,01:20,0.721,1.042,0.699,1.316,0.914,0.412,0.722,0.684,���k��,3.8,��
2019/12/19,01:30,0.722,1.041,0.699,1.315,0.912,0.411,0.721,0.684,�k��,4.6,��
2019/12/19,01:40,0.722,1.041,0.699,1.315,0.912,0.411,0.723,0.681,�k��,4.2,��
2019/12/19,01:50,0.721,1.040,0.699,1.314,0.912,0.411,0.721,0.685,�k�k��,4.2,��
2019/12/19,02:00,0.721,1.041,0.702,1.317,0.912,0.410,0.722,0.683,�k��,4.2,��
2019/12/19,02:10,0.722,1.042,0.699,1.315,0.911,0.411,0.722,0.683,�k��,3.6,��
2019/12/19,02:20,0.722,1.041,0.699,1.315,0.911,0.411,0.721,0.685,�k��,3.2,��
2019/12/19,02:30,0.720,1.042,0.699,1.318,0.912,0.412,0.722,0.681,�k��,3.8,��
2019/12/19,02:40,0.721,1.043,0.698,1.317,0.912,0.412,0.722,0.681,�k��,3.8,��
2019/12/19,02:50,0.722,1.041,0.699,1.315,0.913,0.412,0.720,0.683,�k��,3.9,��
2019/12/19,03:00,0.722,1.041,0.696,1.314,0.914,0.412,0.723,0.683,�k��,4.9,��
2019/12/19,03:10,0.721,1.041,0.699,1.315,0.912,0.411,0.720,0.683,�k��,4.5,��
2019/12/19,03:20,0.720,1.041,0.700,1.314,0.914,0.411,0.722,0.684,�k��,4.5,��
2019/12/19,03:30,0.722,1.040,0.699,1.314,0.912,0.412,0.722,0.683,�k��,3.6,��
2019/12/19,03:40,0.721,1.042,0.697,1.317,0.911,0.410,0.720,0.682,�k��,4.6,��
2019/12/19,03:50,0.721,1.042,0.697,1.315,0.912,0.412,0.722,0.683,�k��,5.8,��
2019/12/19,04:00,0.721,1.043,0.699,1.316,0.914,0.412,0.722,0.684,�k�k��,5.5,��
2019/12/19,04:10,0.719,1.040,0.700,1.314,0.912,0.412,0.721,0.683,�k�k��,5.5,��
2019/12/19,04:20,0.721,1.040,0.699,1.316,0.911,0.411,0.722,0.683,�k�k��,5.5,��
2019/12/19,04:30,0.718,1.043,0.700,1.317,0.911,0.412,0.721,0.683,�k�k��,5.2,��
2019/12/19,04:40,0.720,1.044,0.700,1.317,0.913,0.413,0.722,0.682,�k�k��,5.3,��
2019/12/19,04:50,0.719,1.040,0.699,1.315,0.914,0.412,0.722,0.683,�k�k��,5.6,��
2019/12/19,05:00,0.720,1.042,0.698,1.317,0.914,0.412,0.721,0.684,�k�k��,5.3,��
2019/12/19,05:10,0.719,1.038,0.697,1.311,0.913,0.411,0.720,0.684,�k�k��,6.0,��
2019/12/19,05:20,0.720,1.042,0.697,1.315,0.911,0.410,0.722,0.684,�k�k��,5.8,��
2019/12/19,05:30,0.719,1.042,0.698,1.314,0.913,0.409,0.722,0.683,�k�k��,5.2,��
2019/12/19,05:40,0.721,1.040,0.698,1.314,0.911,0.412,0.719,0.682,�k�k��,5.2,��
2019/12/19,05:50,0.721,1.039,0.699,1.315,0.912,0.411,0.721,0.683,�k�k��,4.9,��
2019/12/19,06:00,0.720,1.041,0.699,1.313,0.913,0.411,0.721,0.683,�k�k��,4.2,��
2019/12/19,06:10,0.720,1.041,0.699,1.313,0.911,0.411,0.721,0.683,�k�k��,4.6,��
2019/12/19,06:20,0.719,1.042,0.698,1.314,0.911,0.409,0.722,0.681,�k�k��,4.9,��
2019/12/19,06:30,0.721,1.041,0.695,1.314,0.911,0.411,0.720,0.683,�k�k��,4.4,��
2019/12/19,06:40,0.717,1.040,0.697,1.316,0.911,0.411,0.719,0.682,�k�k��,4.9,��
2019/12/19,06:50,0.721,1.039,0.698,1.316,0.912,0.411,0.721,0.682,�k�k��,4.4,��
2019/12/19,07:00,0.720,1.040,0.698,1.311,0.913,0.410,0.719,0.682,�k�k��,4.2,��
2019/12/19,07:10,0.720,1.039,0.696,1.313,0.910,0.410,0.721,0.683,�k�k��,4.3,��
2019/12/19,07:20,0.719,1.038,0.696,1.314,0.911,0.409,0.721,0.685,�k�k��,4.6,��
2019/12/19,07:30,0.718,1.039,0.697,1.314,0.912,0.409,0.722,0.683,�k�k��,4.1,��
2019/12/19,07:40,0.720,1.041,0.697,1.315,0.912,0.409,0.723,0.683,�k�k��,4.9,��
2019/12/19,07:50,0.719,1.038,0.696,1.313,0.913,0.411,0.720,0.683,�k��,4.5,��
2019/12/19,08:00,0.719,1.040,0.699,1.313,0.909,0.411,0.722,0.682,�k��,4.2,��
2019/12/19,08:10,0.717,1.040,0.696,1.313,0.913,0.410,0.721,0.680,�k��,4.3,��
2019/12/19,08:20,0.720,1.041,0.697,1.314,0.913,0.410,0.720,0.682,�k��,4.4,��
2019/12/19,08:30,0.720,1.042,0.697,1.314,0.910,0.411,0.721,0.684,�k��,3.8,��
2019/12/19,08:40,0.720,1.039,0.698,1.316,0.912,0.410,0.721,0.682,�k��,3.9,��
2019/12/19,08:50,0.721,1.040,0.697,1.313,0.912,0.409,0.720,0.682,�k��,3.6,��
2019/12/19,09:00,0.720,1.039,0.697,1.316,0.910,0.409,0.721,0.682,�k�k��,3.4,��
2019/12/19,09:10,0.719,1.039,0.697,1.312,0.911,0.410,0.721,0.682,�k��,3.2,��
2019/12/19,09:20,0.720,1.038,0.696,1.313,0.914,0.409,0.720,0.682,�k�k��,3.3,��
2019/12/19,09:30,0.718,1.037,0.696,1.315,0.911,0.410,0.720,0.684,�k�k��,3.6,��
2019/12/19,09:40,0.720,1.037,0.697,1.315,0.912,0.411,0.722,0.682,�k�k��,2.9,��
2019/12/19,09:50,0.722,1.040,0.699,1.313,0.912,0.410,0.722,0.684,�k�k��,3.0,��
2019/12/19,10:00,0.722,1.039,0.698,1.314,0.911,0.410,0.720,0.685,�k�k��,2.4,��
2019/12/19,10:10,0.723,1.038,0.698,1.316,0.914,0.411,0.718,0.684,�k�k��,2.7,��
2019/12/19,10:20,0.719,1.038,0.697,1.314,0.913,0.409,0.718,0.683,�k�k��,2.7,��
2019/12/19,10:30,0.721,1.039,0.700,1.317,0.910,0.410,-,0.684,�k,2.9,��
2019/12/19,10:40,0.720,1.042,0.699,1.314,0.913,0.410,-,0.683,�k�k��,3.0,��
2019/12/19,10:50,0.720,1.040,0.700,1.315,0.913,0.411,-,0.682,�k��,3.0,��
2019/12/19,11:00,0.720,1.041,0.699,1.312,0.914,0.410,-,0.683,�k�k��,3.0,��
2019/12/19,11:10,0.721,1.040,0.699,1.315,0.913,0.411,-,0.682,�k��,2.8,��
2019/12/19,11:20,0.722,1.039,0.698,1.312,0.913,0.411,-,0.683,�k�k��,3.0,��
2019/12/19,11:30,0.722,1.041,0.699,1.316,0.915,0.409,-,0.682,�k��,2.4,��
2019/12/19,11:40,0.721,1.041,0.698,1.315,0.914,0.411,-,0.682,�k�k��,3.0,��
2019/12/19,11:50,0.723,1.040,0.698,1.314,0.914,0.411,-,0.682,�k�k��,3.1,��
2019/12/19,12:00,0.722,1.037,0.698,1.317,0.916,0.411,-,0.683,�k�k��,2.7,��
2019/12/19,12:10,0.722,1.042,0.696,1.315,0.914,0.409,0.717,0.683,�k�k��,1.9,��
2019/12/19,12:20,0.720,1.039,0.697,1.318,0.915,0.411,0.719,0.685,�k��,2.8,��
2019/12/19,12:30,0.722,1.040,0.698,1.315,0.915,0.411,0.718,0.683,��,2.0,��
2019/12/19,12:40,0.724,1.038,0.698,1.316,0.914,0.410,0.719,0.685,�k��,2.7,��
2019/12/19,12:50,0.722,1.040,0.697,1.315,0.915,0.410,0.720,0.684,���k��,2.1,��
2019/12/19,13:00,0.724,1.041,0.700,1.312,0.916,0.410,0.720,0.683,���k��,2.8,��
2019/12/19,13:10,0.722,1.043,0.698,1.315,0.915,0.409,0.721,0.683,���k��,2.1,��
2019/12/19,13:20,0.725,1.042,0.698,1.314,0.916,0.411,0.720,0.683,���k��,1.8,��
2019/12/19,13:30,0.722,1.040,0.699,1.316,0.915,0.411,0.720,0.685,���k��,2.1,��
2019/12/19,13:40,0.721,1.041,0.700,1.313,0.914,0.412,0.721,0.684,�k��,1.2,��
2019/12/19,13:50,-,1.041,0.697,1.317,0.913,0.412,0.721,0.684,���k��,1.3,��
2019/12/19,14:00,-,1.042,0.699,1.314,0.916,0.413,0.721,0.684,���쓌,1.5,��
2019/12/19,14:10,0.719,1.042,0.700,1.315,0.915,0.411,0.722,0.683,���쓌,0.8,��
2019/12/19,14:20,0.720,1.038,0.699,1.316,0.915,0.412,0.721,0.685,�쓌,1.6,��
2019/12/19,14:30,0.721,1.044,0.698,1.314,0.913,0.410,0.721,0.683,�쓌,1.5,��
2019/12/19,14:40,0.721,1.040,0.700,1.317,0.916,0.413,0.721,0.683,��,1.4,��
2019/12/19,14:50,0.720,1.042,0.699,1.318,0.915,0.412,0.721,0.683,��,1.3,��
2019/12/19,15:00,-,1.042,0.698,1.315,0.915,0.412,0.720,0.684,-,CALM,��
2019/12/19,15:10,-,1.044,0.698,1.315,0.914,0.412,0.720,0.683,���쓌,1.6,��
2019/12/19,15:20,0.718,1.041,0.701,1.316,0.917,0.412,0.722,0.682,���쓌,1.1,��
2019/12/19,15:30,0.720,1.046,0.699,1.314,0.915,0.412,0.721,0.683,���쓌,1.8,��
2019/12/19,15:40,0.721,1.043,0.698,1.317,0.914,0.412,0.720,0.684,�쓌,1.7,��
2019/12/19,15:50,0.721,1.043,0.698,1.316,0.915,0.413,0.721,0.684,���쓌,1.5,��
2019/12/19,16:00,0.722,1.045,0.699,1.315,0.915,0.413,0.722,0.684,��쓌,0.7,��
2019/12/19,16:10,0.720,1.045,0.700,1.313,0.913,0.412,0.722,0.683,��쓌,0.7,��
2019/12/19,16:20,0.722,1.044,0.698,1.314,0.915,0.411,0.719,0.683,��쓌,1.3,��
2019/12/19,16:30,0.721,1.044,0.697,1.315,0.915,0.412,0.721,0.684,�쓌,1.2,��
2019/12/19,16:40,0.723,1.044,0.697,1.315,0.914,0.413,0.721,0.683,�쓌,1.0,��
2019/12/19,16:50,0.723,1.045,0.698,1.316,0.915,0.412,0.721,0.685,��,1.0,��
2019/12/19,17:00,0.722,1.043,0.700,1.316,0.916,0.413,0.721,0.683,��쐼,1.7,��
2019/12/19,17:10,0.719,1.043,0.699,1.314,0.914,0.413,0.723,0.683,��쐼,1.7,��
2019/12/19,17:20,0.721,1.043,0.700,1.314,0.915,0.412,0.719,0.683,��쐼,1.4,��
2019/12/19,17:30,0.722,1.043,0.700,1.314,0.915,0.413,0.721,0.682,�쐼,1.9,��
2019/12/19,17:40,0.722,1.045,0.699,1.315,0.914,0.413,0.720,0.683,��쐼,2.1,�L
2019/12/19,17:50,0.723,1.045,0.700,1.317,0.916,0.413,0.721,0.683,�쐼,2.3,��
2019/12/19,18:00,0.719,1.045,0.700,1.318,0.913,0.413,0.720,0.684,��쐼,2.0,�L
2019/12/19,18:10,0.721,1.045,0.699,1.319,0.914,0.413,0.721,0.683,��,1.9,�L
2019/12/19,18:20,0.722,1.042,0.700,1.318,0.912,0.414,0.721,0.685,��,2.6,�L
2019/12/19,18:30,0.724,1.042,0.700,1.317,0.915,0.413,0.722,0.684,��,2.7,�L
2019/12/19,18:40,0.723,1.044,0.700,1.315,0.915,0.413,0.721,0.683,��쐼,3.6,�L
2019/12/19,18:50,0.721,1.044,0.700,1.317,0.916,0.414,0.721,0.683,��,3.8,�L
2019/12/19,19:00,0.724,1.042,0.700,1.316,0.915,0.414,0.723,0.684,��,3.8,�L
2019/12/19,19:10,0.723,1.042,0.702,1.316,0.914,0.414,0.721,0.684,��,5.0,�L
2019/12/19,19:20,0.723,1.043,0.700,1.314,0.914,0.414,0.722,0.683,��,5.6,�L
2019/12/19,19:30,0.722,1.042,0.700,1.314,0.913,0.413,0.722,0.685,��,5.8,�L
2019/12/19,19:40,0.724,1.042,0.699,1.317,0.912,0.410,0.723,0.685,��,5.5,�L
2019/12/19,19:50,0.723,1.042,0.699,1.315,0.916,0.412,0.722,0.683,��,4.5,�L
2019/12/19,20:00,0.719,1.042,0.699,1.317,0.916,0.413,0.722,0.683,��,4.3,�L
2019/12/19,20:10,0.722,1.042,0.699,1.316,0.915,0.412,0.722,0.683,��,4.5,�L
2019/12/19,20:20,0.721,1.042,0.701,1.314,0.913,0.414,0.720,0.682,��쐼,4.3,�L
2019/12/19,20:30,0.721,1.043,0.700,1.314,0.916,0.412,0.722,0.683,��,4.9,�L
2019/12/19,20:40,0.723,1.041,0.699,1.316,0.912,0.411,0.721,0.683,��쐼,4.9,�L
2019/12/19,20:50,0.722,1.042,0.702,1.316,0.914,0.413,0.721,0.683,��쐼,4.5,�L
2019/12/19,21:00,0.724,1.043,0.699,1.314,0.911,0.412,0.721,0.684,��쐼,4.1,��
2019/12/19,21:10,0.722,1.042,0.700,1.316,0.913,0.411,0.721,0.683,�쐼,3.6,��
2019/12/19,21:20,0.721,1.041,0.697,1.315,0.913,0.413,0.722,0.683,�쐼,3.6,��
2019/12/19,21:30,0.720,1.040,0.700,1.315,0.914,0.412,0.721,0.682,��쐼,3.4,��
2019/12/19,21:40,0.722,1.041,0.699,1.313,0.913,0.414,0.722,0.683,�쐼,3.5,��
2019/12/19,21:50,0.721,1.041,0.700,1.315,0.912,0.412,0.721,0.684,�쐼,3.6,�L
2019/12/19,22:00,0.721,1.040,0.698,1.315,0.911,0.412,0.722,0.683,��쐼,3.2,��
2019/12/19,22:10,0.721,1.042,0.699,1.315,0.914,0.413,0.720,0.682,��쐼,3.4,��
2019/12/19,22:20,0.721,1.040,0.699,1.313,0.912,0.411,0.722,0.683,��쐼,3.1,��
2019/12/19,22:30,0.721,1.041,0.699,1.314,0.913,0.412,0.721,0.683,��쐼,3.8,��
2019/12/19,22:40,0.720,1.041,0.697,1.314,0.915,0.411,0.721,0.684,��쐼,3.8,��
2019/12/19,22:50,0.720,1.041,0.699,1.314,0.914,0.412,0.722,0.684,��쐼,3.8,��
2019/12/19,23:00,0.720,1.041,0.699,1.317,0.913,0.413,0.721,0.684,��쐼,3.5,��
2019/12/19,23:10,0.720,1.042,0.700,1.314,0.913,0.412,0.722,0.683,��쐼,3.3,��
2019/12/19,23:20,0.723,1.041,0.700,1.314,0.914,0.412,0.721,0.683,�쐼,3.8,��
2019/12/19,23:30,0.724,1.042,0.700,1.314,0.913,0.412,0.721,0.684,��쐼,4.2,��
2019/12/19,23:40,0.722,1.041,0.700,1.315,0.913,0.412,0.722,0.683,��쐼,5.0,�L
2019/12/19,23:50,0.721,1.041,0.700,1.317,0.914,0.413,0.720,0.683,�쐼,4.6,��
